Tracking 29892 objects as of 21-Nov-2024
HD Live streaming from Space Station
objects crossing your sky now

FENGYUN 1C DEB

Track FENGYUN 1C DEB now!
10-day predictions


NORAD ID: 31312
Int'l Code: 1999-025BPQ
Perigee: 856.4 km
Apogee: 944.8 km
Inclination: 98.8 °
Period: 102.9 minutes
Semi major axis: 7271 km
RCS: 0.0157 m2 (small)
Launch date: May 10, 1999
Source: People's Republic of China (PRC)
Launch site: Taiyaun Space Center, China (TSC)

Note: This is SATELLITE DEBRIS
Your satellite tracking list
Your tracking list is empty




NASA's NSSDC Master Catalog

Two Line Element Set (TLE):
1 31312U 99025BPQ 24303.49964295  .00002467  00000-0  16761-2 0  9997
2 31312  98.8218 296.6967 0060829 295.0272 225.3207 14.00093787896367
Source of the keplerian elements: AFSPC